| time (UTC) | temp F | wind direction | speed MPH | gust MPH | rain 1hr in | rain 24hr in | rain mn in | humidity % | barometer mb |
| 20260505151536 | 60 | 246 | 1.0 | 8.0 | 0.00 | 0.00 | 0.00 | 74 | 1014.7 |
| 20260505130108 | 55 | 232 | 1.0 | 6.0 | 0.00 | 0.00 | 0.00 | 82 | 1013.8 |
| 20260505124535 | 55 | 258 | 1.0 | 7.0 | 0.00 | 0.00 | 0.00 | 81 | 1013.6 |
| 20260505123106 | 56 | 264 | 1.0 | 11.0 | 0.00 | 0.00 | 0.00 | 81 | 1013.6 |
| 20260505121536 | 56 | 264 | 1.0 | 6.0 | 0.00 | 0.00 | 0.00 | 81 | 1013.4 |
| 20260505114531 | 56 | 267 | 1.0 | 5.0 | 0.00 | 0.00 | 0.00 | 80 | 1013.3 |
| 20260505113037 | 57 | 276 | 1.0 | 9.0 | 0.00 | 0.00 | 0.00 | 79 | 1013.3 |
| 20260505111531 | 57 | 248 | 1.0 | 9.0 | 0.00 | 0.00 | 0.00 | 79 | 1013.2 |
| 20260505101536 | 58 | 274 | 1.0 | 6.0 | 0.00 | 0.00 | 0.00 | 77 | 1012.7 |
| 20260505100046 | 59 | 256 | 1.0 | 9.0 | 0.00 | 0.00 | 0.00 | 76 | 1012.6 |
| 20260505094642 | 59 | 267 | 2.0 | 10.0 | 0.00 | 0.00 | 0.00 | 76 | 1012.5 |
| 20260505093037 | 59 | 263 | 2.0 | 11.0 | 0.00 | 0.00 | 0.00 | 75 | 1012.4 |
| 20260505091535 | 60 | 259 | 1.0 | 9.0 | 0.00 | 0.00 | 0.00 | 75 | 1012.3 |
| 20260505090036 | 60 | 271 | 2.0 | 8.0 | 0.00 | 0.00 | 0.00 | 74 | 1012.2 |
| 20260505084532 | 61 | 268 | 1.0 | 8.0 | 0.00 | 0.00 | 0.00 | 74 | 1012.1 |
| 20260505083110 | 62 | 255 | 2.0 | 11.0 | 0.00 | 0.00 | 0.00 | 74 | 1012.1 |
| 20260505081536 | 62 | 277 | 1.0 | 11.0 | 0.00 | 0.00 | 0.00 | 74 | 1011.9 |
| 20260505080035 | 62 | 258 | 1.0 | 6.0 | 0.00 | 0.00 | 0.00 | 74 | 1011.8 |
| 20260505074535 | 63 | 256 | 1.0 | 7.0 | 0.00 | 0.00 | 0.00 | 73 | 1011.6 |
| 20260505073032 | 63 | 265 | 1.0 | 6.0 | 0.00 | 0.00 | 0.00 | 73 | 1011.6 |
| 20260505070149 | 64 | 277 | 1.0 | 8.0 | 0.00 | 0.00 | 0.00 | 71 | 1011.2 |
| 20260505064605 | 64 | 261 | 0.0 | 9.0 | 0.00 | 0.00 | 0.00 | 71 | 1011.1 |
| 20260505063028 | 64 | 247 | 1.0 | 6.0 | 0.00 | 0.00 | 0.00 | 70 | 1011.0 |
| 20260505054536 | 65 | 241 | 0.0 | 6.0 | 0.00 | 0.00 | 0.00 | 66 | 1010.9 |
| 20260505053032 | 66 | 263 | 0.0 | 5.0 | 0.00 | 0.00 | 0.00 | 64 | 1010.8 |
| 20260505051534 | 66 | 248 | 1.0 | 11.0 | 0.00 | 0.00 | 0.00 | 63 | 1010.7 |
| 20260505041536 | 68 | 251 | 0.0 | 7.0 | 0.00 | 0.00 | 0.00 | 59 | 1010.1 |
| 20260505040048 | 67 | 265 | 1.0 | 7.0 | 0.00 | 0.00 | 0.00 | 59 | 1009.8 |
| 20260505031608 | 70 | 262 | 0.0 | 4.0 | 0.00 | 0.00 | 0.00 | 55 | 1009.1 |
| 20260505030033 | 70 | 258 | 1.0 | 7.0 | 0.00 | 0.00 | 0.00 | 55 | 1008.9 |
| 20260505024535 | 71 | 256 | 1.0 | 7.0 | 0.00 | 0.00 | 0.00 | 55 | 1008.7 |
| 20260505023036 | 71 | 247 | 1.0 | 10.0 | 0.00 | 0.00 | 0.00 | 55 | 1008.7 |
| 20260505020036 | 72 | 198 | 1.0 | 6.0 | 0.00 | 0.00 | 0.00 | 53 | 1008.7 |
| 20260505014607 | 73 | 234 | 1.0 | 7.0 | 0.00 | 0.00 | 0.00 | 52 | 1008.6 |
| 20260505013033 | 74 | 206 | 2.0 | 6.0 | 0.00 | 0.00 | 0.00 | 52 | 1008.5 |
| 20260505010032 | 75 | 209 | 2.0 | 11.0 | 0.00 | 0.00 | 0.00 | 50 | 1008.4 |
| 20260505004529 | 75 | 241 | 3.0 | 11.0 | 0.00 | 0.00 | 0.00 | 50 | 1008.4 |
| 20260505003032 | 76 | 238 | 2.0 | 12.0 | 0.00 | 0.00 | 0.00 | 49 | 1008.3 |
| 20260505001533 | 75 | 237 | 2.0 | 9.0 | 0.00 | 0.00 | 0.00 | 49 | 1008.2 |
| 20260505000041 | 76 | 242 | 3.0 | 11.0 | 0.00 | 0.00 | 0.00 | 49 | 1008.2 |
| 20260504234533 | 75 | 251 | 2.0 | 11.0 | 0.00 | 0.00 | 0.00 | 49 | 1008.2 |
| 20260504233107 | 76 | 269 | 2.0 | 8.0 | 0.00 | 0.00 | 0.00 | 49 | 1008.1 |
| 20260504231535 | 76 | 267 | 2.0 | 8.0 | 0.00 | 0.00 | 0.00 | 49 | 1008.1 |
| 20260504230042 | 76 | 276 | 2.0 | 9.0 | 0.00 | 0.00 | 0.00 | 49 | 1008.2 |
| 20260504224536 | 76 | 269 | 2.0 | 16.0 | 0.00 | 0.00 | 0.00 | 49 | 1008.3 |
| 20260504223036 | 76 | 283 | 2.0 | 12.0 | 0.00 | 0.00 | 0.00 | 49 | 1008.6 |
| 20260504221536 | 76 | 296 | 2.0 | 14.0 | 0.00 | 0.00 | 0.00 | 49 | 1008.6 |
| 20260504220057 | 0 | 0 | 0.0 | 0.0 | 0.00 | 0.00 | 0.00 | 100 | |
| 20260504214607 | 76 | 291 | 2.0 | 12.0 | 0.00 | 0.00 | 0.00 | 49 | 1008.9 |
| 20260504213035 | 76 | 286 | 3.0 | 11.0 | 0.00 | 0.00 | 0.00 | 49 | 1009.1 |
| 20260504211536 | 76 | 310 | 3.0 | 10.0 | 0.00 | 0.00 | 0.00 | 48 | 1009.2 |
| 20260504204535 | 78 | 296 | 2.0 | 10.0 | 0.00 | 0.00 | 0.00 | 45 | 1009.6 |
| 20260504203033 | 79 | 314 | 2.0 | 11.0 | 0.00 | 0.00 | 0.00 | 43 | 1009.8 |
| 20260504200032 | 77 | 292 | 3.0 | 10.0 | 0.00 | 0.00 | 0.00 | 46 | 1010.0 |
| 20260504193033 | 77 | 305 | 2.0 | 9.0 | 0.00 | 0.00 | 0.00 | 47 | 1010.2 |
| 20260504190037 | 76 | 284 | 1.0 | 8.0 | 0.00 | 0.00 | 0.00 | 48 | 1010.5 |
| 20260504183031 | 74 | 297 | 2.0 | 7.0 | 0.00 | 0.00 | 0.00 | 50 | 1010.6 |
| 20260504181535 | 73 | 294 | 2.0 | 9.0 | 0.00 | 0.00 | 0.00 | 51 | 1010.7 |
| 20260504180036 | 72 | 295 | 2.0 | 9.0 | 0.00 | 0.00 | 0.00 | 52 | 1010.7 |
| 20260504174536 | 72 | 296 | 3.0 | 16.0 | 0.00 | 0.00 | 0.00 | 53 | 1010.7 |
| 20260504173034 | 71 | 301 | 3.0 | 8.0 | 0.00 | 0.00 | 0.00 | 54 | 1010.7 |
| 20260504171607 | 70 | 302 | 3.0 | 13.0 | 0.00 | 0.00 | 0.00 | 55 | 1010.7 |